Wind_Speed
15 18 17 17 18 18 19 19 16 22 18 21 17 17 14 13 11 11 11 12 8 8 8 10 11 11 12 13 13 11 8 13 15 15 14 13 5 7 8 9 14 16 17
16 18 19 17 15 16 21 20 17 26 20 18 15 16 17 11 11 11 11 11 11 10 8 8 10 10 16 14 13 15 15 13 16 19 18 20 21 20 19 15 17 17 15
18 20 20 17 14 16 17 20 20 17 28 21 17 19 16 12 11 12 13 9 12 10 11 12 13 14 19 17 16 17 14 15 16 17 17 16 16 18 19 18 19 17 22
23 20 20 20 18 17 22 15 22 21 18 26 24 20 18 15 14 15 12 11 11 10 12 13 15 17 17 19 18 18 19 18 19 19 21 20 16 17 19 20 21 22 18
17 19 20 21 19 19 19 19 18 20 20 19 24 25 19 17 16 11 15 14 13 14 13 16 14 15 15 18 21 22 20 21 22 22 20 21 20 18 21 21 21 18 18
20 22 22 21 22 22 19 21 19 20 20 22 23 22 20 19 13 15 19 16 15 14 16 16 16 17 13 18 18 18 19 21 24 26 28 29 26 22 21 23 25 21 20
18 20 20 22 23 23 21 21 23 24 23 24 25 21 20 18 18 19 21 22 21 20 20 19 18 14 16 22 22 21 24 27 28 27 28 30 33 30 27 26 26 26 27
19 18 20 22 23 23 22 23 23 24 24 25 24 22 21 20 19 20 22 21 19 19 17 18 18 17 21 23 24 25 26 28 27 25 27 29 31 31 29 27 30 29 28
18 20 20 22 23 23 22 22 21 20 21 23 23 22 22 22 20 16 15 16 18 17 16 13 15 20 25 24 24 26 27 28 29 32 34 37 35 33 29 28 30 28 28
15 17 20 21 23 24 25 24 22 21 22 21 22 22 21 22 19 19 17 18 19 13 11 15 19 19 22 24 27 30 31 26 25 27 29 32 34 34 32 28 29 31 33
9 11 19 22 24 26 26 25 24 22 21 23 21 20 20 23 19 21 21 19 18 17 17 13 16 19 22 24 25 23 22 23 22 24 27 26 24 28 26 26 28 26 29
16 14 11 19 24 28 28 28 25 25 23 22 21 20 20 26 23 23 21 20 18 17 16 14 18 15 17 18 19 19 19 18 17 19 20 21 17 12 16 19 23 20 26
16 13 16 19 20 26 28 28 30 27 26 26 23 25 24 24 25 23 23 19 17 15 15 14 13 14 14 15 17 18 14 13 14 19 22 22 19 16 18 21 22 23 23
19 17 14 15 18 22 27 32 29 30 29 27 26 26 25 24 27 22 19 19 17 13 12 11 12 11 11 12 14 16 12 11 12 13 15 16 16 12 11 13 14 14 17
20 20 19 19 20 20 26 31 36 28 26 18 19 21 23 26 31 22 14 17 15 12 8 9 7 9 9 11 12 16 15 11 11 10 11 12 11 12 10 9 9 10 11
25 22 18 18 18 15 20 18 16 10 19 18 27 31 32 24 29 21 16 14 14 11 9 6 5 9 12 10 9 13 18 14 11 10 10 10 10 11 11 9 8 7 8
26 26 21 19 17 16 15 8 6 26 30 41 43 35 34 34 30 22 21 18 18 13 8 8 7 7 10 10 8 12 16 16 14 12 11 12 12 9 8 10 9 9 8
29 27 23 22 18 18 16 14 6 8 19 30 33 35 34 33 26 24 23 19 15 10 9 10 9 8 7 8 6 11 17 17 17 16 16 14 13 13 11 10 10 10 9
29 26 24 23 19 17 12 14 9 13 13 12 21 25 24 23 22 24 22 18 13 12 7 9 10 8 8 4 6 11 12 15 17 17 18 16 14 14 15 15 13 14 12
28 28 28 25 22 22 18 14 13 15 16 11 14 20 23 25 26 25 22 18 17 12 8 15 10 9 8 6 2 4 7 6 11 10 12 13 14 14 15 10 15 16 19
27 28 27 27 26 20 14 14 16 19 20 20 19 17 21 26 26 25 21 19 18 15 10 8 10 8 8 1 2 2 1 1 3 4 6 9 12 11 13 10 10 8 13
28 27 28 31 29 26 23 19 19 19 20 20 23 25 21 19 25 21 16 14 16 13 14 14 12 7 5 5 4 4 3 0 2 2 4 5 8 10 5 9 10 11 7
30 28 34 25 28 25 23 22 17 17 19 20 18 23 24 20 24 19 20 18 20 16 14 9 5 10 9 6 4 4 5 5 4 2 4 3 6 10 11 11 12 13 15
29 31 34 29 24 29 28 27 22 21 23 21 23 28 27 25 23 26 20 19 19 18 15 13 10 11 17 12 12 12 12 13 13 14 14 13 13 9 14 12 13 15 16
30 31 27 27 29 33 29 28 22 23 22 26 27 28 27 22 20 20 18 16 18 17 21 19 18 15 13 16 15 14 15 15 17 19 21 20 19 17 16 12 16 18 17
27 26 27 26 22 23 24 24 21 25 28 28 27 26 25 26 22 19 16 16 25 23 24 21 19 18 19 18 17 16 18 18 16 15 13 10 7 8 11 12 15 14 13
Wind_Direction
201 220 218 218 219 216 206 210 225 216 232 211 232 234 229 230 230 244 257 254 268 280 250 267 281 296 287 278 283 288 296 289 307 305 311 341 314 306 256 277 273 261 263
219 218 217 222 223 217 208 214 235 218 209 204 206 216 243 237 233 245 253 245 244 268 275 285 281 280 290 297 309 307 314 311 295 293 287 294 303 294 288 276 267 265 264
221 218 214 224 229 221 227 225 225 227 229 224 225 234 239 243 230 241 250 239 240 261 269 276 290 291 288 291 277 283 285 297 300 298 292 295 290 287 286 282 270 275 265
209 211 217 217 221 223 227 237 229 227 228 233 233 237 242 242 239 229 249 253 252 252 257 263 266 275 279 285 290 287 286 286 288 290 296 297 289 284 283 282 285 284 280
207 209 220 224 221 222 221 228 225 227 233 236 227 234 239 236 230 228 237 255 269 266 255 262 269 277 276 278 292 300 291 284 283 283 278 285 288 281 279 289 274 275 280
219 220 215 225 228 230 225 223 228 231 235 241 231 232 230 223 216 234 251 251 249 257 262 260 267 271 270 287 282 285 283 284 281 281 281 277 274 272 280 281 281 275 275
242 226 225 227 230 235 235 228 227 232 236 232 232 227 229 229 215 236 243 252 260 253 258 270 277 282 271 271 280 277 279 282 277 277 276 277 280 277 272 271 273 274 273
243 250 243 241 240 237 234 241 239 233 230 228 225 224 226 231 236 233 243 253 256 261 270 276 279 282 278 281 280 280 283 283 280 279 280 280 276 276 274 272 269 270 271
238 241 240 239 239 242 239 240 241 235 229 224 222 222 223 229 232 229 240 248 258 267 272 270 274 277 282 287 292 290 287 286 285 280 272 263 264 269 271 274 273 269 269
260 253 248 243 241 239 243 243 240 233 229 228 227 226 224 231 232 229 234 244 255 259 259 265 280 290 297 297 297 296 298 300 296 298 292 279 267 263 260 255 259 262 259
274 256 252 251 243 242 243 243 239 234 227 228 223 225 224 231 233 234 240 244 247 239 252 250 268 276 286 298 302 304 303 303 303 306 314 304 283 262 261 266 264 263 261
275 266 262 251 249 246 243 239 237 237 230 224 220 224 224 236 237 241 248 254 245 252 256 255 270 291 302 310 318 317 302 298 312 324 329 333 326 285 278 266 272 264 256
308 295 274 256 255 249 241 240 236 230 228 221 225 224 226 237 251 254 253 246 244 240 252 273 281 291 300 321 327 328 314 315 326 323 322 318 312 295 274 262 264 271 268
296 300 292 287 278 269 253 242 237 231 225 216 220 230 229 235 253 258 243 238 238 244 255 268 279 292 315 324 343 337 325 296 304 306 309 314 331 309 288 289 275 268 271
290 285 287 292 277 275 270 259 239 226 220 223 239 245 240 237 246 261 248 233 230 238 258 271 298 304 303 315 335 350 352 334 336 330 321 326 332 328 328 308 296 289 282
277 283 285 295 276 279 290 299 291 251 244 237 252 243 253 253 246 253 235 224 221 243 254 229 255 285 307 321 346 9 7 1 350 349 349 346 339 331 322 310 319 308 296
274 267 267 271 276 279 272 301 295 193 204 217 243 242 241 242 235 226 232 232 236 243 238 198 241 269 285 315 353 19 19 19 20 16 8 6 358 359 350 352 341 317 309
278 264 259 261 262 266 255 254 236 238 216 219 229 235 238 233 218 220 226 230 229 229 240 199 231 248 259 298 346 33 27 32 39 32 26 23 24 27 14 5 358 348 336
270 266 258 255 255 250 250 221 234 231 239 241 223 224 222 213 212 218 222 230 215 195 187 200 229 228 246 263 310 27 15 33 29 32 36 38 35 38 41 30 25 23 32
263 263 246 247 250 239 237 233 238 233 220 228 229 214 206 203 208 218 222 213 204 200 212 215 218 223 238 261 226 332 334 7 9 3 359 16 16 24 32 37 18 17 17
252 259 241 241 245 249 241 225 229 226 227 217 211 230 230 219 215 214 210 210 202 192 211 210 212 213 230 117 98 71 55 32 350 29 14 10 5 354 349 358 347 355 9
251 257 250 241 230 231 237 228 220 223 222 227 229 216 233 216 210 207 199 184 183 191 228 206 212 232 176 193 210 194 145 250 354 20 17 7 1 355 11 356 350 330 338
243 250 253 253 225 228 225 219 215 216 224 219 209 205 210 211 201 198 207 217 210 196 205 202 204 201 201 187 196 212 185 208 180 269 280 309 315 329 330 334 326 336 341
242 248 235 237 229 236 219 213 211 227 223 216 209 205 205 202 199 203 209 214 202 202 199 190 200 215 184 189 213 233 242 251 264 275 291 298 292 291 289 284 310 301 302
243 241 236 229 230 229 224 229 226 223 223 209 205 203 204 200 201 199 202 193 204 198 187 179 200 196 208 235 241 251 261 268 273 282 287 290 291 289 292 303 301 298 298
245 246 247 251 255 238 221 218 235 222 202 196 196 198 203 205 201 205 213 222 180 181 181 188 205 218 231 241 250 263 277 285 291 292 293 300 318 293 291 296 301 311 310
Height
1513 1516 1518 1518 1521 1524 1526 1527 1529 1530 1535 1543 1541 1545 1548 1549 1546 1548 1552 1552 1552 1553 1551 1551 1551 1551 1551 1551 1550 1549 1548 1546 1545 1543 1543 1543 1540 1543 1545 1547 1551 1553 1554
1513 1514 1515 1517 1519 1522 1523 1524 1527 1527 1532 1537 1542 1544 1547 1544 1542 1545 1550 1551 1551 1551 1551 1551 1550 1548 1548 1546 1546 1546 1544 1545 1546 1546 1545 1543 1542 1542 1544 1546 1547 1548 1548
1510 1512 1513 1514 1517 1519 1521 1524 1525 1526 1527 1530 1535 1538 1538 1538 1540 1543 1546 1549 1550 1550 1550 1550 1548 1546 1545 1543 1543 1543 1543 1543 1543 1544 1547 1547 1547 1544 1544 1544 1544 1544 1544
1506 1508 1509 1513 1513 1516 1518 1522 1522 1524 1525 1527 1528 1530 1531 1535 1538 1540 1544 1545 1546 1547 1548 1548 1546 1545 1543 1542 1540 1540 1539 1539 1539 1540 1540 1542 1543 1542 1541 1539 1539 1539 1538
1502 1504 1506 1508 1509 1513 1516 1518 1522 1522 1524 1525 1526 1527 1529 1532 1534 1538 1540 1541 1542 1543 1543 1543 1543 1541 1541 1540 1538 1537 1536 1535 1535 1535 1536 1536 1537 1538 1536 1537 1536 1535 1532
1498 1500 1502 1503 1506 1508 1511 1513 1516 1518 1520 1522 1523 1525 1526 1528 1532 1536 1537 1537 1538 1538 1539 1538 1538 1538 1537 1536 1535 1534 1534 1532 1530 1530 1530 1530 1531 1533 1532 1531 1530 1531 1531
1494 1496 1499 1502 1504 1504 1506 1509 1512 1513 1515 1516 1519 1521 1522 1524 1527 1530 1532 1533 1534 1535 1536 1535 1534 1535 1534 1532 1530 1529 1528 1528 1527 1527 1524 1523 1522 1524 1527 1525 1526 1526 1525
1492 1494 1497 1499 1500 1501 1503 1503 1505 1508 1509 1512 1514 1516 1518 1520 1522 1524 1526 1528 1530 1531 1533 1532 1531 1530 1528 1528 1526 1524 1523 1522 1522 1520 1518 1517 1516 1516 1517 1516 1517 1517 1518
1491 1491 1492 1493 1494 1497 1498 1499 1500 1502 1504 1506 1509 1511 1514 1515 1517 1520 1522 1524 1525 1526 1526 1527 1526 1526 1524 1523 1521 1518 1516 1514 1513 1511 1510 1508 1506 1506 1508 1509 1509 1509 1508
1488 1489 1489 1491 1493 1493 1494 1495 1497 1499 1501 1503 1505 1507 1510 1512 1514 1517 1518 1520 1521 1522 1523 1522 1520 1520 1518 1517 1514 1512 1509 1507 1503 1501 1499 1496 1497 1497 1498 1499 1500 1500 1501
1484 1483 1485 1485 1485 1488 1490 1491 1492 1494 1497 1499 1502 1505 1508 1508 1510 1512 1513 1516 1517 1517 1517 1518 1516 1515 1514 1512 1508 1505 1502 1499 1498 1495 1491 1485 1484 1486 1489 1491 1493 1493 1493
1481 1480 1480 1481 1481 1481 1483 1484 1487 1491 1493 1496 1500 1502 1504 1503 1506 1508 1509 1510 1512 1513 1513 1512 1510 1510 1510 1506 1503 1500 1498 1495 1493 1489 1486 1484 1480 1481 1483 1485 1484 1483 1485
1478 1477 1476 1476 1476 1477 1477 1478 1482 1483 1488 1491 1495 1498 1499 1499 1499 1502 1504 1505 1507 1507 1508 1507 1507 1506 1504 1501 1498 1495 1492 1491 1488 1486 1484 1482 1480 1479 1478 1478 1478 1479 1479
1475 1474 1473 1472 1472 1471 1471 1470 1475 1478 1479 1484 1486 1490 1496 1495 1494 1497 1498 1500 1501 1503 1504 1504 1504 1502 1500 1498 1495 1492 1489 1487 1484 1483 1482 1480 1478 1475 1474 1475 1474 1475 1475
1471 1469 1468 1467 1467 1465 1463 1461 1459 1465 1471 1478 1486 1488 1490 1491 1489 1492 1493 1495 1496 1498 1500 1500 1500 1500 1499 1496 1493 1489 1485 1483 1481 1479 1479 1477 1476 1475 1473 1472 1472 1472 1472
1465 1464 1464 1464 1463 1462 1459 1458 1459 1444 1457 1475 1479 1481 1479 1479 1486 1486 1487 1491 1492 1495 1496 1497 1499 1499 1499 1495 1492 1489 1484 1481 1480 1478 1478 1476 1474 1473 1473 1472 1471 1470 1470
1458 1458 1459 1459 1459 1458 1457 1457 1458 1460 1460 1464 1469 1472 1477 1481 1482 1484 1485 1487 1490 1492 1493 1494 1495 1497 1496 1494 1491 1488 1485 1482 1479 1479 1478 1476 1474 1473 1473 1471 1470 1470 1470
1451 1451 1453 1454 1454 1455 1455 1455 1454 1458 1461 1462 1461 1464 1468 1471 1473 1479 1482 1483 1486 1487 1488 1490 1493 1494 1494 1492 1490 1488 1487 1483 1481 1480 1479 1477 1475 1472 1473 1472 1470 1468 1468
1445 1444 1446 1448 1448 1449 1449 1449 1451 1453 1452 1452 1454 1456 1460 1464 1469 1474 1477 1479 1481 1484 1486 1488 1490 1491 1491 1490 1489 1487 1487 1484 1483 1482 1481 1479 1478 1475 1473 1472 1471 1470 1466
1436 1437 1437 1440 1442 1442 1444 1445 1447 1449 1448 1450 1450 1453 1456 1460 1463 1469 1471 1474 1477 1480 1483 1485 1486 1487 1488 1488 1487 1486 1485 1484 1483 1483 1483 1480 1480 1478 1475 1472 1470 1471 1468
1428 1429 1430 1432 1435 1436 1437 1438 1443 1445 1446 1448 1450 1450 1453 1457 1460 1465 1467 1470 1474 1477 1479 1481 1483 1484 1485 1485 1486 1485 1485 1486 1485 1484 1484 1483 1481 1479 1477 1475 1472 1471 1470
1420 1420 1422 1423 1426 1429 1431 1432 1436 1440 1442 1444 1445 1447 1449 1453 1457 1461 1464 1467 1470 1473 1476 1478 1480 1482 1482 1483 1484 1483 1484 1484 1483 1483 1482 1482 1481 1479 1478 1476 1475 1471 1469
1412 1412 1413 1415 1418 1421 1422 1425 1428 1431 1435 1438 1441 1442 1445 1449 1453 1457 1460 1463 1466 1469 1473 1474 1477 1480 1480 1481 1483 1483 1482 1482 1481 1482 1480 1479 1479 1479 1478 1476 1473 1470 1470
1404 1405 1406 1407 1409 1410 1413 1416 1419 1423 1428 1432 1435 1438 1442 1446 1449 1452 1456 1459 1463 1466 1467 1471 1474 1476 1475 1477 1479 1479 1480 1480 1479 1478 1477 1476 1476 1475 1474 1471 1469 1466 1466
1399 1399 1399 1400 1403 1404 1407 1411 1410 1413 1419 1425 1429 1434 1438 1442 1446 1448 1451 1455 1458 1462 1464 1465 1469 1470 1472 1474 1475 1476 1476 1475 1475 1473 1473 1472 1470 1469 1469 1468 1465 1462 1460
1397 1399 1400 1401 1402 1398 1399 1403 1405 1409 1413 1419 1424 1429 1434 1438 1442 1446 1449 1452 1450 1455 1458 1462 1465 1467 1469 1471 1471 1472 1472 1470 1468 1469 1468 1466 1465 1463 1463 1463 1461 1458 1456